Total_Precipitation_Accumulation
0.97 0.88 0.88 1.02 0.98 0.99 1.10 1.19 1.05 0.96 0.98 0.95 0.90 0.85 0.80 0.72 0.72 0.67 0.78 0.86 1.00 1.29 1.68 1.66 1.37 1.08 1.06 1.29 1.30 1.29 1.28 1.40 1.68 1.82 1.75 1.67 1.70 1.72 1.46 1.19 1.01 0.91 0.81
1.02 1.04 0.92 1.00 1.14 1.16 1.13 1.13 1.10 1.01 0.97 0.99 0.95 0.96 0.94 0.78 0.76 0.78 0.83 0.82 0.79 0.94 1.38 1.68 1.52 1.30 1.29 1.39 1.33 1.32 1.28 1.33 1.54 1.72 1.82 1.69 1.79 1.89 1.53 1.19 1.06 0.96 0.94
1.03 1.04 0.92 0.95 1.09 1.26 1.23 1.15 1.09 1.07 0.92 0.87 0.95 1.00 1.01 0.90 0.86 0.92 0.88 0.87 0.76 0.80 1.08 1.51 1.67 1.52 1.51 1.67 1.48 1.33 1.26 1.28 1.33 1.52 1.77 1.77 1.73 1.78 1.50 1.23 1.04 1.01 1.02
1.04 1.12 1.03 0.98 1.13 1.31 1.46 1.49 1.31 1.21 1.08 1.00 1.04 1.03 0.99 1.03 0.98 0.94 0.92 0.97 0.93 0.81 0.88 1.09 1.41 1.69 1.76 1.87 1.66 1.46 1.28 1.16 1.11 1.23 1.41 1.56 1.60 1.56 1.47 1.33 1.17 1.12 1.15
0.96 1.17 1.24 1.19 1.22 1.38 1.43 1.44 1.43 1.28 1.25 1.21 1.07 1.02 0.97 1.02 1.08 0.93 0.93 0.99 1.07 0.98 0.91 0.79 0.87 1.10 1.42 1.89 1.95 1.61 1.43 1.22 1.05 1.07 1.18 1.24 1.35 1.38 1.41 1.37 1.20 1.12 1.18
1.18 1.34 1.42 1.41 1.41 1.46 1.43 1.54 1.70 1.50 1.33 1.34 1.22 1.08 1.00 1.01 1.04 1.04 1.04 1.04 1.12 1.09 1.00 0.82 0.77 0.64 0.83 1.38 1.84 1.64 1.61 1.44 1.15 1.05 1.13 1.13 1.13 1.20 1.21 1.30 1.30 1.18 1.14
1.40 1.54 1.64 1.66 1.59 1.50 1.54 1.71 2.04 1.94 1.58 1.41 1.45 1.33 1.16 1.09 1.13 1.07 1.09 1.16 1.11 1.10 1.16 1.04 0.87 0.80 0.70 0.74 1.16 1.58 1.62 1.65 1.46 1.26 1.19 1.18 1.09 1.09 1.07 1.10 1.27 1.27 1.17
1.50 1.58 1.79 1.89 1.82 1.78 1.87 1.88 2.08 2.22 1.97 1.75 1.73 1.91 1.69 1.48 1.15 0.93 0.96 1.02 1.07 1.17 1.16 1.17 1.07 0.96 0.91 0.82 0.68 1.03 1.34 1.50 1.64 1.50 1.37 1.30 1.15 1.06 1.06 1.02 1.09 1.33 1.30
1.70 1.67 1.79 1.99 1.95 1.89 1.90 2.07 2.31 2.56 2.50 2.27 2.06 2.16 1.91 1.70 1.56 1.07 0.85 0.92 1.03 1.15 1.18 1.26 1.23 1.12 1.07 1.11 0.88 0.72 0.89 1.16 1.55 1.64 1.58 1.43 1.30 1.17 1.16 1.12 1.07 1.25 1.46
1.63 1.62 1.74 1.94 2.08 2.15 2.18 2.24 2.24 2.51 2.71 2.56 2.46 2.17 1.90 1.77 1.84 1.60 1.12 0.89 0.96 1.03 1.09 1.12 1.19 1.24 1.22 1.21 1.10 0.74 0.65 0.83 1.34 1.72 1.78 1.62 1.43 1.30 1.24 1.24 1.17 1.21 1.35
1.71 1.62 1.67 1.75 1.79 1.86 1.97 2.11 2.19 2.38 2.49 2.63 2.61 2.43 2.21 2.06 1.63 1.59 1.58 1.31 1.08 0.91 0.94 1.04 1.20 1.27 1.28 1.24 1.26 0.91 0.66 0.55 0.78 1.33 1.75 1.93 1.75 1.56 1.43 1.28 1.18 1.17 1.21
1.68 1.59 1.54 1.65 1.67 1.67 1.79 1.91 2.01 2.22 2.37 2.49 2.55 2.43 2.29 2.23 1.98 1.73 1.57 1.52 1.42 1.12 0.95 0.94 1.03 1.13 1.21 1.22 1.14 1.09 0.84 0.60 0.54 0.79 1.18 1.62 1.83 1.77 1.68 1.53 1.40 1.30 1.32
1.31 1.31 1.24 1.30 1.43 1.48 1.66 1.73 1.67 1.73 1.89 2.08 2.25 2.28 2.24 2.13 2.13 2.05 1.89 1.73 1.53 1.21 1.08 0.93 0.87 1.01 1.10 1.22 1.24 1.31 0.95 0.72 0.59 0.59 0.74 0.99 1.24 1.47 1.65 1.73 1.78 1.76 1.71
1.01 0.97 0.97 0.98 1.04 1.13 1.34 1.56 1.54 1.55 1.61 1.69 1.78 2.04 2.13 2.08 2.12 1.97 1.82 1.84 1.65 1.39 1.19 0.95 0.79 0.81 0.91 1.06 1.38 1.48 0.98 0.85 0.69 0.63 0.67 0.70 0.78 0.94 1.22 1.50 1.68 1.84 1.89
0.78 0.76 0.78 0.86 0.92 0.91 1.02 1.15 1.33 1.41 1.47 1.53 1.57 1.73 1.81 1.87 1.86 1.74 1.74 1.78 1.68 1.43 1.26 1.10 0.96 0.87 0.87 0.94 1.25 1.19 1.02 0.97 0.86 0.77 0.72 0.69 0.68 0.71 0.86 1.04 1.20 1.34 1.43
0.71 0.70 0.67 0.68 0.74 0.77 0.87 0.98 1.03 1.14 1.21 1.37 1.54 1.66 1.67 1.71 1.74 1.66 1.63 1.74 1.72 1.51 1.29 1.10 0.96 0.90 1.00 0.99 1.18 1.05 1.12 1.21 0.94 0.81 0.75 0.76 0.69 0.63 0.58 0.64 0.76 0.86 0.93
0.55 0.56 0.59 0.65 0.65 0.67 0.69 0.70 0.75 0.81 0.88 0.99 1.04 1.16 1.37 1.57 1.62 1.62 1.66 1.71 1.74 1.60 1.36 1.22 1.00 0.97 1.12 1.14 1.14 1.07 1.15 1.20 0.99 0.86 0.72 0.69 0.69 0.64 0.62 0.57 0.58 0.62 0.68
0.47 0.49 0.54 0.58 0.58 0.64 0.66 0.66 0.65 0.68 0.77 0.85 0.85 0.86 0.96 1.18 1.34 1.46 1.52 1.56 1.62 1.62 1.49 1.45 1.34 1.10 1.06 1.13 1.26 1.33 1.26 1.23 1.19 1.15 1.01 0.81 0.73 0.69 0.66 0.62 0.55 0.52 0.53
0.59 0.62 0.61 0.64 0.62 0.64 0.64 0.65 0.68 0.69 0.72 0.76 0.79 0.81 0.87 0.97 1.13 1.21 1.32 1.42 1.50 1.62 1.61 1.44 1.46 1.39 1.20 1.18 1.24 1.32 1.37 1.46 1.34 1.28 1.33 1.16 0.94 0.84 0.77 0.71 0.63 0.57 0.55
0.51 0.54 0.63 0.71 0.79 0.83 0.82 0.78 0.77 0.74 0.70 0.71 0.77 0.84 0.86 0.87 0.99 1.20 1.33 1.40 1.43 1.53 1.65 1.59 1.52 1.49 1.35 1.27 1.27 1.30 1.42 1.52 1.52 1.33 1.25 1.21 1.14 1.02 0.89 0.81 0.73 0.67 0.66
0.44 0.45 0.53 0.62 0.72 0.81 0.86 0.86 0.72 0.61 0.62 0.67 0.67 0.68 0.76 0.83 0.86 1.01 1.17 1.40 1.42 1.52 1.59 1.66 1.58 1.44 1.32 1.24 1.19 1.20 1.29 1.48 1.55 1.53 1.46 1.28 1.16 0.99 0.87 0.83 0.82 0.78 0.73
0.38 0.40 0.44 0.42 0.45 0.50 0.66 0.66 0.54 0.45 0.50 0.60 0.67 0.69 0.69 0.70 0.72 0.77 0.81 1.06 1.25 1.36 1.45 1.47 1.52 1.39 1.28 1.21 1.28 1.28 1.23 1.29 1.40 1.43 1.33 1.40 1.37 1.18 1.02 0.90 0.95 1.00 0.95
0.34 0.36 0.32 0.28 0.30 0.34 0.39 0.38 0.43 0.45 0.48 0.52 0.61 0.70 0.74 0.72 0.78 0.87 0.83 0.86 0.96 1.03 1.14 1.26 1.30 1.24 1.21 1.16 1.24 1.28 1.25 1.21 1.12 1.22 1.23 1.30 1.36 1.25 1.11 1.00 1.00 0.97 0.95
0.29 0.36 0.31 0.29 0.33 0.30 0.32 0.37 0.40 0.43 0.56 0.62 0.61 0.62 0.73 0.79 0.84 1.00 0.99 1.06 0.99 0.89 0.87 0.92 1.06 1.12 1.07 1.17 1.26 1.42 1.47 1.34 1.25 1.28 1.26 1.18 1.15 1.10 1.03 1.02 1.03 0.89 0.84
0.20 0.19 0.23 0.37 0.38 0.34 0.42 0.40 0.35 0.42 0.55 0.62 0.58 0.61 0.73 0.83 0.97 1.07 1.12 1.15 1.05 0.95 0.97 1.05 1.13 1.19 1.21 1.27 1.34 1.40 1.45 1.44 1.35 1.32 1.22 1.09 1.00 0.99 1.00 0.97 0.94 0.95 0.89
0.10 0.10 0.14 0.27 0.34 0.36 0.36 0.28 0.28 0.40 0.53 0.61 0.62 0.63 0.85 0.86 0.94 0.99 1.05 1.18 1.19 1.05 0.98 1.01 1.06 1.08 1.08 1.16 1.35 1.37 1.47 1.54 1.40 1.32 1.21 1.06 1.01 1.12 1.18 1.05 0.92 0.86 0.85